Regional Weather Roundup
Issued by NWS Green Bay, WI

Home | Current Version | Previous Version | Text Only | Print | Product List | Glossary On
Versions: 1 2 3 4 5 6 7 8 9 10 11 12 13 14 15 16 17 18 19 20 21 22 23 24 25 26 27 28 29 30 31 32 33 34 35 36 37 38 39 40 41 42 43 44 45 46 47 48 49 50
000
ASUS43 KGRB 070100
RWRGRB

NORTH-CENTRAL AND NORTHEAST WISCONSIN REGIONAL WEATHER ROUNDUP
NATIONAL WEATHER SERVICE GREEN BAY WI
800 PM CDT FRI MAY 06 2016

WIZ005-009-010>012-018-019-070200-
NORTH CENTRAL WISCONSIN

CITY           SKY/WX    TMP DP  RH WIND       PRES   REMARKS
IRONWOOD         N/A     64  55  72 S8        29.67S
MANITOWISH WTR NOT AVBL
ARBOR VITAE    NOT AVBL
EAGLE RIVER    NOT AVBL
LAND O LAKES   NOT AVBL
RHINELANDER    CLOUDY    77  47  34 NW24G38   29.71R
PHILLIPS       NOT AVBL
ANTIGO         NOT AVBL
TOMAHAWK       NOT AVBL
MERRILL        NOT AVBL
$$

WIZ013-073-070200-
NORTHEAST WISCONSIN

CITY           SKY/WX    TMP DP  RH WIND       PRES   REMARKS
IRON MOUNTAIN  CLOUDY    75  49  39 SE7       29.61S
MARINETTE      CLOUDY    61  45  55 E6        29.66S
$$

WIZ017-030-035>037-045-070200-
CENTRAL WISCONSIN

CITY           SKY/WX    TMP DP  RH WIND       PRES   REMARKS
MEDFORD        NOT AVBL
WAUSAU         CLOUDY    82  45  27 SW8       29.66S
MOSINEE        PTCLDY    77  43  29 SW7       29.69F
MARSHFIELD     CLOUDY    78  44  29 SW8       29.67F
WISC RAPIDS    PTCLDY    80  37  21 SW7       29.70S
STEVENS POINT  NOT AVBL
WAUPACA        NOT AVBL
SHAWANO        NOT AVBL
CLINTONVILLE   NOT AVBL
WAUTOMA        CLEAR     80  40  23 SW7       29.69F
$$

WIZ038-039-048-051-070200-
FOX VALLEY

CITY           SKY/WX    TMP DP  RH WIND       PRES   REMARKS
NWS GREEN BAY  CLOUDY    77  51  40 S8        29.67S
APPLETON       MOCLDY    79  36  21 SW8       29.67F
OSHKOSH        CLEAR     78  43  28 SW6       29.68F
FOND DU LAC    CLEAR     78  45  30 SW5       29.70S
$$

WIZ022-050-052-070200-
EAST CENTRAL WISCONSIN

CITY           SKY/WX    TMP DP  RH WIND       PRES   REMARKS
EPHRAIM        NOT AVBL
STURGEON BAY   CLOUDY    57  39  51 S14       29.70S
MANITOWOC      NOT AVBL
SHEBOYGAN      CLEAR     56  42  59 S8        29.71F
$$

LMZ563-521-522-541>543-070200-
LAKESHORE

STATION/POSITION TIME  TEMP    WIND        PRES    VSBY  WAVE
                       AIR SEA DIR/SP/G                  HT/PER
                 (UTC) (F)     (DEG/KT/KT) (MB)    (MI)  (FT/S)
SHEBOYGAN LKSHOR 0000   47     170/ 10/ 11 1007.4F
KEWAUNEE LKSHORE 0000   49                 1005.5F
ALGOMA MARINA    0015          220/ 19/ 21   N/A
NORTHPORT PIER   0000   56     160/ 14/ 23 1004.7F
N MID LAKE BUOY  2350   46 39  190/ 17/ 19 1005.6F         3/ 4
SISTER BAY LKSHO 0019   59     180/ 27/ 33   N/A
CHAMBERS ISLAND  0000   62     140/ 10/ 16 1004.1F
MENOMINEE LKSHOR 0000   56                 1003.2F
$$



USA.gov is the U.S. government's official web portal to all federal, state and local government web resources and services.